Regional Weather Roundup
Issued by NWS State College, PA

Home | Current Version | Previous Version | Text Only | Print | Product List | Glossary On
Versions: 1 2 3 4 5 6 7 8 9 10 11 12 13 14 15 16 17 18 19 20 21 22 23 24 25 26 27 28 29 30 31 32 33 34 35 36 37 38 39 40 41 42 43 44 45 46 47 48 49 50
770
ASUS41 KCTP 282003
RWRCTP

REGIONAL WEATHER ROUNDUP
NATIONAL WEATHER SERVICE STATE COLLEGE PA
400 PM EDT SUN MAY 28 2017

Note: "fair" indicates few or no clouds below 12,000 feet with no
significant weather and/or obstructions to visibility.

* = STATION THAT DOES NOT REPORT PRECIPITATION /E.G. RAIN...SNOW...ETC/
    THUNDER OR FOG.

PAZ002>004-007>009-013>016-020>023-029>032-282100-
WESTERN PENNSYLVANIA

CITY           SKY/WX    TMP DP  RH WIND       PRES   REMARKS
ERIE           MOSUNNY   71  58  63 NE15      29.71F
MEADVILLE      HVY RAIN  68  65  90 S3        29.74F FOG
FRANKLIN*      PTSUNNY   72  63  73 S12       29.76F THUNDER
NEW CASTLE     MOCLDY    76  66  71 VRB6      29.75F
BEAVER COUNTY  NOT AVBL
BUTLER*        PTSUNNY   75  64  69 SW12      29.76F
PITTSBURGH INT PTSUNNY   75  65  70 SW7       29.76F
PITTSBURGH     CLOUDY    75  64  68 S9        29.76F
INDIANA*       CLOUDY    68  64  88 S7G14     29.83S
LATROBE        CLOUDY    72  66  83 SE9       29.79S
WASHINGTON CO* CLOUDY    77  66  69 S7        29.79S
$$

PAZ004>006-010>012-017>019-024>028-033>037-041-042-045-046-049>053-282100-
CENTRAL PENNSYLVANIA

CITY           SKY/WX    TMP DP  RH WIND       PRES   REMARKS
BRADFORD       PTSUNNY   68  62  81 SE12      29.82F
DUBOIS         CLOUDY    64  59  83 SE10      29.81F HAZE
CLEARFIELD     CLOUDY    64  60  87 VRB6      29.85S
JOHNSTOWN      LGT RAIN  61  60  97 SE7       29.84S FOG
ALTOONA        CLOUDY    66  62  87 SE6       29.85F
STATE COLLEGE  CLOUDY    64  59  82 CALM      29.85F
WILLIAMSPORT   CLOUDY    72  60  66 CALM      29.83S
SELINSGROVE    CLOUDY    70  62  76 S7        29.85S
FT INDIANTOWN  CLOUDY    71  64  79 S6        29.85F
CAPITAL CITY   LGT RAIN  71  63  75 E8        29.85F
HARRISBURG     LGT RAIN  69  65  86 SE6       29.84F
YORK           CLOUDY    70  63  78 SE9       29.85F
$$

PAZ038>040-043-044-047-048-054-055-060>062-067>071-282100-
EASTERN PENNSYLVANIA

CITY           SKY/WX    TMP DP  RH WIND       PRES   REMARKS
SCRANTON       CLOUDY    73  55  53 VRB7      29.85F
MOUNT POCONO   CLOUDY    66  55  67 SE12      29.90F
ALLENTOWN      CLOUDY    75  57  53 SE10      29.86F
QUAKERTOWN*    CLOUDY    73  59  60 SE9       29.89S
READING        CLOUDY    72  62  71 S10       29.85F
LANCASTER      CLOUDY    72  62  71 S10       29.86F
COATESVILLE    CLOUDY    70  61  73 VRB6G13   29.89S
POTTSTOWN      CLOUDY    71  59  65 S5        29.89S
BLUE BELL      CLOUDY    72  59  64 SE5       29.88F
DOYLESTOWN     CLOUDY    72  58  61 VRB5      29.88F
WILLOW GROVE   NOT AVBL
NORTH PHILA    CLOUDY    75  58  55 SE10      29.89F
PHILADELPHIA   CLOUDY    74  58  57 SE9       29.87F
$$




USA.gov is the U.S. government's official web portal to all federal, state and local government web resources and services.